Regional Weather Roundup
Issued by NWS Portland, ME

Current Version | Previous Version | Text Only | Print | Product List | Glossary Off
Versions: 1 2 3 4 5 6 7 8 9 10 11 12 13 14 15 16 17 18 19 20 21 22 23 24 25 26 27 28 29 30 31 32 33 34 35 36 37 38 39 40 41 42 43 44 45 46 47 48 49 50
000 ASUS41 KGYX 231605 RWRGYX WEATHER ROUNDUP FOR MAINE AND NEW HAMPSHIRE NATIONAL WEATHER SERVICE GRAY ME 1200 PM EDT TUE OCT 23 2018 MEZ002-005-006-010-012-015-018-020-021-024-026-027-029-231700- MAINE CITY SKY/WX TMP DP RH WIND PRES REMARKS PORTLAND CLOUDY 48 38 68 E5 30.13F SANFORD PTSUNNY 51 39 63 VRB6 30.11F BAR HARBOR LGT RAIN 44 41 89 VRB5 30.17F WISCASSET CLOUDY 51 39 63 SE5 30.15F ROCKLAND CLOUDY 53 39 59 S10G18 30.14F FRYEBURG CLOUDY 44 30 57 NE3 30.13F LEWISTONAUBURN CLOUDY 43 31 62 N5 30.14F AUGUSTA PTSUNNY 42 30 62 N7 30.16F WATERVILLE FAIR 40 30 67 VRB6 30.14F BANGOR CLOUDY 35 31 85 N7 30.19F GREENVILLE N/A 31 28 89 E7 30.12F MILLINOCKET CLOUDY 32 29 88 E6 30.22F HOULTON CLOUDY 34 24 67 SW7 30.22F PRESQUE ISLE CLOUDY 35 19 52 CALM 30.22F FRENCHVILLE FAIR 36 19 50 SE6 30.17F CARIBOU FAIR 37 19 48 S7 30.20F $$ NHZ002-005-008-009-011-012-014-231700- NEW HAMPSHIRE CITY SKY/WX TMP DP RH WIND PRES REMARKS PORTSMOUTH CLOUDY 52 42 70 E12 30.09F ROCHESTER PTSUNNY 50 41 71 VRB6 30.10F NASHUA CLOUDY 51 41 68 E6 30.08F MANCHESTER PTSUNNY 52 41 66 S12 30.06F CONCORD CLOUDY 49 38 65 CALM 30.08F LACONIA CLOUDY 45 37 73 NE6 30.10F PLYMOUTH PTSUNNY 46 35 66 SE5 30.09F BERLIN CLOUDY 45 32 60 VRB3 30.07F WHITEFIELD CLOUDY 45 31 58 E9 30.06F JAFFREY CLOUDY 50 39 66 S7 30.05F KEENE LGT RAIN 48 38 68 CALM 30.05F LEBANON LGT RAIN 46 36 68 CALM 30.05F MT WASHINGTON SNOWSHWR 23 23 100 S24 N/A VSB 0 WCI 7 $$ VTZ005-007-008-231700- VERMONT CITY SKY/WX TMP DP RH WIND PRES REMARKS ST JOHNSBURY N/A 43 33 68 MISG 30.05F MONTPELIER LGT RAIN 43 37 79 S6 30.07F BURLINGTON PTSUNNY 50 33 52 SE10 30.02F $$ MAZ007-012-024-CTZ003-RIZ002-NYZ038-NYZ072-231700- SOUTHERN NEW ENGLAND AND NY CITY SKY/WX TMP DP RH WIND PRES REMARKS BOSTON CLOUDY 55 44 66 SE10 30.09F WORCESTER CLOUDY 50 41 71 SE13 30.05F NANTUCKET PTSUNNY 57 49 74 SE17 30.10F PROVIDENCE PTSUNNY 56 47 71 S9G18 30.08S HARTFORD PTSUNNY 51 42 71 CALM 30.03F ALBANY PTSUNNY 51 40 65 S12 29.99F NEW YORK CITY PTSUNNY 61 42 49 W7 30.02F $$ ANZ081-ANZ082-ANZ150-NHZ014-MEZ023>029-231700- COASTAL MARINE OBSERVATIONS STATION/POSITION TIME TEMP WIND PRES WAVE AIR SEA DIR/SP/G HT/PER (UTC) (F) (DEG/KT/KT) (MB) (FT/S) MOUNT DESERT ROC 1600 51 160/ 18/ 19 1021.3F MATINICUS ROCK 1500 51 180/ 16/ 17 1020.8F ISLE OF SHOALS 1500 52 160/ 20/ 22 1019.4F JEFFREYS LEDGE 1506 54 N/A 2/ 3 $$ .............KEY.............. WCI - WIND CHILL TC - TEMPERATURE IN CELSIUS VSB - VISIBILITY IN MILES HX - HEAT INDEX FAIR- INDICATES FEW OR NO CLOUDS BELOW 12,000 FT, WITH NO SIGNIFICANT WEATHER AND/OR OBSTRUCTIONS TO VISIBILITY.

USA.gov is the U.S. government's official web portal to all federal, state and local government web resources and services.